sat.trackr.live / text

‹ back to catalog

STARLINK-36765

NORAD 68962 · 2026-099M

PAYLOAD ACTIVE UNKNOWN

§ Identity

Operator
Country
US
Launch date
2026-05-01
Launch site
AFETR
Launch vehicle
Mass (kg)
RCS (m²)

Purposes: comms

External: N2YO · Heavens-Above · Gunter

§ Orbital elements

Epoch: 2026-05-25T04:00:03.998880Z

Period
91.90 min
Inclination
53.1591°
Eccentricity
0.0000751
Mean motion
15.67003550 rev/d
Perigee alt
367.0 km
Apogee alt
368.0 km
Semi-major
6,745.6 km
B*
-1.9623e-2
RAAN
270.0096°
Arg perigee
78.0073°
Mean anomaly
245.1215°
Rev number
501

§ Raw data

STARLINK-367651 68962U 26099M   26145.16671295 -.01888056  00000+0 -19623-1 0  99912 68962  53.1591 270.0096 0000751  78.0073 245.1215 15.67003550  5017

JSON: /api/v1/satellites/68962 · /tle

For live sub-satellite position, see the globe view (requires WebGL).

§ Visibility from observer

Set your observer location to see the next 7 days of passes ≥ 10°. The values pass through the URL so the page stays shareable.

No JS? Fill the form by hand. The geolocation button needs JavaScript.